STARLINK-32892, 62893

Orbit data source: Space-Track

STARLINK-32892, 62893 is a payload satellite owned by SpaceX/Seattle (US) in LEO that was launched on Tue, 04 Feb 2025 UTC via an FALCON 9 launch vehicle from the Air Force Eastern Test Range (AFETR). Payload-class satellites include a variety of spacecraft equipped with specific instruments for various scientific and technological missions. These include communications satellites like Starlink; space stations such as the ISS; scientific satellites like the Hubble; Earth observation satellites from companies like Planet Labs, Umbra, and HawkEye 360; GPS; miniature CubeSats for education and research; and military/defense satellites.

Loading next visibility...
Identifier
62893, 2025-024Q
Orbit
LEO
Country
Flag of USUS
Related business
Manufacturer
SpaceX/Seattle
Mission
Operational Commercial Communications
Bus & Motor
STARLINK V2M, Unknown motor
Mass
730 kg wet, ~700 kg dry
Launch date (UTC)
2025-02-04 (7 months ago)
Launch vehicle
FALCON 9
Launch site
Air Force Eastern Test Range (AFETR)
Object type
Payload
Rocket body
Debris
Shape & HBR
Box + 2 Pan, 14.5 m
Radar Cross Section
33.884 m², Large (>1 m²)

Expand to show TLE details & history
Last TLE update: 22 hours ago

TLE from 22 hours ago
0 STARLINK-32892
1 62893U 25024Q   25258.38727063  .00048646  00000-0  17621-2 0  9996
2 62893  43.0062 235.5574 0002624 281.8415  78.2142 15.27643967 35450
Epoch: 2025-09-15T09:17Z
TLE epoch observation values (Epoch: 2025-09-15T09:17:40.182Z)
Latitude
-0.00004°
Longitude
101.54728°
Altitude
482.266 km
Speed
7.626 km/s
True Right ascension
15h 42m 13s
True Declination
0° 00' 00"
Sunlit
Object was in daylight at epoch
Visualization orbit readout
Latitude
Unknown
Longitude
Unknown
Altitude
Unknown
Speed
Unknown
Apparent Right ascension
Unknown
Apparent Declination
Unknown
Sunlit
N/A
Visualization observer readout
Local Sidereal Time
00:13:51
Azimuth
Unknown
Elevation
Unknown
Doppler factor
Unknown
Orbital elements
Apogee altitude
486.603 km
Perigee altitude
483.001 km
Semi-major axis
6,862.939 km
Eccentricity
0.00026
Inclination
43.0062°
RAAN
235.5574°
Arg. of periapsis
281.8415°
True anomaly
78.24364°
Mean anomaly
78.2142°
Eccentric anomaly
78.22892°
Mean motion
3.81749 °/min
Orbital period
94.3 mins
BSTAR
0.0017621
Loading maneuver chart data...
Computing Atmospheric mass density...
Loading historical data...
Loading historical data...
Loading historical data...
Loading historical data...
Loading historical data...
Loading historical data...
Loading historical data...

Documentation

Showing up to 5 results
|